Waarnemingen

Advertentie
Mijn weer
Soderstjerna, Zweden (2667): temperatuur & dauwpunt: 19.02.2018 00:00:00 - 25.02.2018 00:00:00 (CET)Soderstjerna, Zweden (2667): windsnelheid & windstoten: 19.02.2018 00:00:00 - 25.02.2018 00:00:00 (CET)Soderstjerna, Zweden (2667): windrichting: 19.02.2018 00:00:00 - 25.02.2018 00:00:00 (CET)Soderstjerna, Zweden (2667): luchtdruk: 19.02.2018 00:00:00 - 25.02.2018 00:00:00 (CET)Soderstjerna, Zweden (2667): zicht: 19.02.2018 00:00:00 - 25.02.2018 00:00:00 (CET)Soderstjerna, Zweden (2667): neerslag: 19.02.2018 00:00:00 - 25.02.2018 00:00:00 (CET)
Datum & Tijd tt [°C] td [°C] ff [km/u] ff [kn] fx [km/u] fx [kn] dd ppp [hPa] vv [km] rr [mm]
25.02.2018 00:00:00 -6,1 -7,9 14 8 25 14 NNO 1036,5 50 0,0
24.02.2018 23:00:00 -5,6 -7,6 11 6 22 12 NNO 1036,4 50 0,0
24.02.2018 22:00:00 -5,1 -7,1 11 6 22 12 N 1036,4 50 0,0
24.02.2018 21:00:00 -4,7 -6,5 11 6 22 12 N 1036,5 50 0,0
24.02.2018 20:00:00 -4,0 -5,8 11 6 22 12 N 1036,4 50 0,0
24.02.2018 19:00:00 -3,9 -5,2 7 4 18 10 N 1036,5 30 0,0
24.02.2018 18:00:00 -3,7 -5,2 11 6 32 18 NNO 1036,8 6 0,1
24.02.2018 17:00:00 -2,9 -6,0 22 12 36 19 NO 1036,3 50 0,0
24.02.2018 16:00:00 -2,5 -6,7 18 10 36 19 NO 1036,3 50 0,0
24.02.2018 15:00:00 -2,6 -5,6 22 12 32 18 NO 1036,2 20 0,0
24.02.2018 14:00:00 -2,6 -4,9 18 10 32 18 NO 1036,3 40 0,0
24.02.2018 13:00:00 -2,1 -6,3 18 10 43 23 NO 1036,0 35 0,0
24.02.2018 12:00:00 -2,2 -6,7 29 16 40 21 NO 1036,1 45 0,0
24.02.2018 11:00:00 -2,5 -5,8 18 10 32 18 NO 1035,9 45 0,0
24.02.2018 10:00:00 -3,6 -5,9 14 8 25 14 NNO 1035,6 40 0,0
24.02.2018 09:00:00 -4,6 -6,3 11 6 22 12 NNO 1035,3 45 0,0
24.02.2018 08:00:00 -5,8 -7,0 14 8 25 14 N 1035,0 45 0,0
24.02.2018 07:00:00 -5,5 -6,6 11 6 25 14 N 1034,6 45 0,0
24.02.2018 06:00:00 -5,1 -6,3 11 6 22 12 N 1034,1 45 0,0
24.02.2018 05:00:00 -4,8 -5,8 14 8 22 12 N 1033,3 12 0,1
24.02.2018 04:00:00 -4,4 -5,6 11 6 22 12 N 1033,1 35 0,0
24.02.2018 03:00:00 -4,2 -5,4 11 6 22 12 N 1032,6 45 0,0
24.02.2018 02:00:00 -3,9 -5,6 11 6 25 14 N 1032,2 50 0,0
24.02.2018 01:00:00 -3,2 -5,1 18 10 25 14 NO 1031,5 45 0,0
24.02.2018 00:00:00 -2,6 -4,8 14 8 32 18 NNO 1031,0 50 0,0
23.02.2018 23:00:00 -2,1 -4,3 14 8 32 18 NNO 1030,5 50 0,0
23.02.2018 22:00:00 -1,7 -4,2 14 8 25 14 NNO 1030,2 45 0,0
23.02.2018 21:00:00 -1,4 -4,1 11 6 22 12 NNO 1029,6 45 0,0
23.02.2018 20:00:00 -1,1 -3,1 11 6 18 10 NNO 1029,1 45 0,0
23.02.2018 19:00:00 -1,2 -2,9 11 6 25 14 N 1028,7 35 0,0
23.02.2018 18:00:00 -1,1 -2,8 14 8 22 12 N 1028,2 45 0,0
23.02.2018 17:00:00 -0,9 -3,3 14 8 25 14 N 1027,7 45 0,0
23.02.2018 16:00:00 -0,9 -3,4 11 6 25 14 N 1027,5 40 0,0
23.02.2018 15:00:00 -0,1 -3,1 14 8 22 12 NNW 1027,1 35 0,0
23.02.2018 14:00:00 -0,1 -3,1 11 6 25 14 WNW 1027,2 40 0,0
23.02.2018 13:00:00 -0,5 -3,0 18 10 32 18 W 1027,4 35 0,0
23.02.2018 12:00:00 -0,9 -3,6 18 10 29 16 W 1027,7 40 0,0
23.02.2018 11:00:00 -1,5 -4,2 14 8 25 14 WNW 1028,0 40 0,0
23.02.2018 10:00:00 -2,2 -4,9 18 10 22 12 W 1028,3 35 0,0
23.02.2018 09:00:00 -2,5 -5,0 14 8 22 12 WNW 1028,5 35 0,0
23.02.2018 08:00:00 -2,6 -5,2 7 4 14 8 NW 1028,7 45 0,0
23.02.2018 07:00:00 -2,7 -5,2 4 2 11 6 NW 1028,5 45 0,0
23.02.2018 06:00:00 -2,6 -5,1 4 2 7 4 NW 1028,6 45 0,0
23.02.2018 05:00:00 -2,8 -4,1 0 0 4 2 N 1028,4 30 0,0
23.02.2018 04:00:00 -2,7 -4,6 4 2 4 2 N 1028,5 35 0,0
23.02.2018 03:00:00 -2,5 -4,7 4 2 4 2 WZW 1028,7 45 0,0
23.02.2018 02:00:00 -2,2 -4,9 0 0 7 4 N 1029,2 45 0,0
23.02.2018 01:00:00 -2,3 -5,0 4 2 7 4 N 1029,4 45 0,0
23.02.2018 00:00:00 -2,5 -5,0 4 2 7 4 N 1029,6 45 0,0
22.02.2018 23:00:00 -2,3 -5,3 0 0 4 2 N 1029,7 45 0,0
22.02.2018 22:00:00 -2,5 -5,3 4 2 11 6 NNO 1030,0 45 0,0
22.02.2018 21:00:00 -2,2 -5,3 11 6 11 6 OZO 1029,8 45 0,0
22.02.2018 20:00:00 -2,2 -5,3 7 4 14 8 NO 1029,9 45 0,0
22.02.2018 19:00:00 -2,0 -5,7 11 6 18 10 O 1029,8 45 0,0
22.02.2018 18:00:00 -1,8 -5,8 14 8 18 10 O 1029,7 45 0,0
22.02.2018 17:00:00 -1,4 -5,8 11 6 18 10 O 1029,6 45 0,0
22.02.2018 16:00:00 -0,8 -5,0 11 6 14 8 OZO 1029,4 35 0,0
22.02.2018 15:00:00 -0,8 -5,0 11 6 18 10 ZO 1029,6 35 0,0
22.02.2018 14:00:00 -0,8 -5,2 11 6 22 12 OZO 1029,9 40 0,0
22.02.2018 13:00:00 -0,4 -4,3 18 10 25 14 OZO 1030,1 35 0,0
22.02.2018 12:00:00 -0,4 -3,9 22 12 29 16 OZO 1030,0 35 0,0
22.02.2018 11:00:00 -0,6 -3,5 22 12 29 16 O 1029,6 24 0,0
22.02.2018 10:00:00 -1,3 -2,0 11 6 18 10 O 1029,6 7 0,3
22.02.2018 09:00:00 -2,3 -3,0 11 6 22 12 ONO 1029,4 2,3 0,0
22.02.2018 08:00:00 -3,2 -3,7 14 8 22 12 NO 1028,9 16 0,0
22.02.2018 07:00:00 - - - - - - - - - -
22.02.2018 06:00:00 -5,0 -6,5 11 6 18 10 NNO 1028,3 45 0,0
22.02.2018 05:00:00 -5,4 -6,8 11 6 18 10 N 1028,5 45 0,0
22.02.2018 04:00:00 -4,9 -6,6 11 6 18 10 NNO 1028,6 45 0,0
22.02.2018 03:00:00 -4,9 -6,1 7 4 14 8 NNO 1028,5 45 0,0
22.02.2018 02:00:00 -4,4 -5,6 7 4 22 12 NNO 1028,6 40 0,0
22.02.2018 01:00:00 -3,8 -4,9 11 6 22 12 NNO 1028,4 45 0,0
22.02.2018 00:00:00 -3,5 -4,3 11 6 22 12 NNO 1028,4 40 0,0
21.02.2018 23:00:00 -2,5 -3,3 11 6 29 16 NO 1028,3 35 0,0
21.02.2018 22:00:00 -1,7 -2,5 25 14 29 16 NO 1027,9 16 0,0
21.02.2018 21:00:00 -1,4 -1,7 25 14 29 16 NO 1027,4 9 0,0
21.02.2018 20:00:00 -1,2 -1,2 18 10 22 12 NO 1027,1 1,1 0,1
21.02.2018 19:00:00 -0,5 -0,6 7 4 11 6 OZO 1026,5 1,1 0,2
21.02.2018 18:00:00 -0,7 -1,0 4 2 4 2 ZO 1026,3 6 0,2
21.02.2018 17:00:00 -0,7 -1,1 4 2 7 4 ZZO 1026,2 6 0,1
21.02.2018 16:00:00 -0,7 -1,3 4 2 7 4 ZZO 1026,2 5 0,1
21.02.2018 15:00:00 -0,8 -1,4 4 2 7 4 Z 1026,4 7 0,2
21.02.2018 14:00:00 -1,1 -1,9 0 0 4 2 N 1026,8 7 0,0
21.02.2018 13:00:00 -1,3 -2,1 4 2 4 2 Z 1027,2 30 0,0
21.02.2018 12:00:00 -1,5 -2,2 4 2 4 2 ZO 1027,3 14 0,2
21.02.2018 11:00:00 -2,0 -2,6 4 2 7 4 W 1027,4 3,5 0,2
21.02.2018 10:00:00 -1,7 -2,3 4 2 4 2 OZO 1027,3 1,4 0,4
21.02.2018 09:00:00 -2,3 -2,9 4 2 7 4 NO 1027,2 2,2 0,2
21.02.2018 08:00:00 -2,3 -3,4 4 2 7 4 NNO 1027,0 6 0,0
21.02.2018 07:00:00 -2,3 -3,6 4 2 7 4 NNO 1027,0 29 0,0
21.02.2018 06:00:00 -2,3 -3,8 4 2 11 6 NNO 1027,2 40 0,0
21.02.2018 05:00:00 -2,4 -3,7 11 6 14 8 NO 1027,3 40 0,0
21.02.2018 04:00:00 -2,4 -3,2 7 4 14 8 NO 1027,4 35 0,0
21.02.2018 03:00:00 -2,2 -3,3 11 6 18 10 NO 1027,5 35 0,0
21.02.2018 02:00:00 -2,0 -3,3 11 6 18 10 NNO 1027,7 40 0,0
21.02.2018 01:00:00 -1,8 -3,1 11 6 22 12 NNO 1027,8 40 0,0
21.02.2018 00:00:00 -1,5 -2,3 11 6 22 12 NNO 1027,8 30 0,0
20.02.2018 23:00:00 -0,9 -2,0 11 6 14 8 NNO 1027,6 35 0,0
20.02.2018 22:00:00 -0,8 -1,8 7 4 14 8 NNO 1027,5 30 0,0
20.02.2018 21:00:00 -0,7 -1,5 11 6 18 10 NNO 1027,5 30 0,0
20.02.2018 20:00:00 -0,5 -1,3 14 8 22 12 NO 1027,4 26 0,0
20.02.2018 19:00:00 -0,3 -1,1 14 8 22 12 NO 1027,0 27 0,0
20.02.2018 18:00:00 -0,1 -1,2 14 8 25 14 NO 1026,7 30 0,0
20.02.2018 17:00:00 -0,1 -1,2 14 8 29 16 ONO 1026,3 27 0,0
20.02.2018 16:00:00 0,1 -1,0 18 10 32 18 ONO 1026,2 30 0,0
20.02.2018 15:00:00 0,1 -1,0 22 12 32 18 ONO 1026,1 26 0,0
20.02.2018 14:00:00 0,3 -0,8 22 12 32 18 ONO 1026,0 28 0,0
20.02.2018 13:00:00 0,2 -0,7 22 12 32 18 NO 1026,0 30 0,0
20.02.2018 12:00:00 0,3 -0,1 22 12 32 18 ONO 1026,1 10 0,0
20.02.2018 11:00:00 0,4 0,4 18 10 29 16 ONO 1025,9 6 0,1
20.02.2018 10:00:00 0,5 0,5 22 12 25 14 NO 1025,5 6 0,1
20.02.2018 09:00:00 0,5 0,2 11 6 25 14 NNO 1025,2 12 0,0
20.02.2018 08:00:00 0,5 0,5 11 6 18 10 NNO 1025,1 25 0,0
20.02.2018 07:00:00 0,1 0,1 11 6 14 8 NNO 1024,8 8 0,0
20.02.2018 06:00:00 -0,4 -0,4 11 6 14 8 NO 1024,8 0,2 0,0
20.02.2018 05:00:00 -0,8 -0,9 7 4 14 8 NNO 1024,8 1,3 0,0
20.02.2018 04:00:00 -0,4 -0,5 7 4 11 6 NNO 1024,7 7 0,0
20.02.2018 03:00:00 -0,8 -0,9 7 4 14 8 NNO 1024,7 7 0,0
20.02.2018 02:00:00 -0,7 -1,0 7 4 11 6 NO 1024,7 7 0,0
20.02.2018 01:00:00 -0,8 -0,9 7 4 14 8 NNO 1024,5 6 0,0
20.02.2018 00:00:00 -0,6 -0,7 7 4 11 6 NNO 1024,3 5 0,0
19.02.2018 23:00:00 -0,4 -0,7 11 6 11 6 NO 1024,3 5 0,0
19.02.2018 22:00:00 -0,1 -0,4 7 4 7 4 NO 1024,0 5 0,0
19.02.2018 21:00:00 0,6 0,2 7 4 7 4 NO 1023,8 8 0,0
19.02.2018 20:00:00 0,9 0,5 7 4 7 4 O 1023,7 7 0,0
19.02.2018 19:00:00 1,5 0,8 4 2 7 4 O 1023,3 9 0,0
19.02.2018 18:00:00 2,0 0,5 7 4 7 4 OZO 1023,1 11 0,0
19.02.2018 17:00:00 2,3 1,1 7 4 7 4 ZO 1022,8 10 0,0
19.02.2018 16:00:00 2,5 1,5 7 4 11 6 Z 1022,4 9 0,0
19.02.2018 15:00:00 2,6 1,7 7 4 18 10 Z 1022,4 9 0,0
19.02.2018 14:00:00 2,9 1,4 14 8 18 10 ZZW 1022,1 12 0,0
19.02.2018 13:00:00 3,0 1,4 14 8 18 10 ZZW 1022,0 10 0,0
19.02.2018 12:00:00 3,0 1,4 14 8 18 10 ZW 1022,2 10 0,0
19.02.2018 11:00:00 3,0 1,4 14 8 18 10 ZW 1022,2 10 0,0
19.02.2018 10:00:00 2,6 1,7 7 4 11 6 ZW 1022,1 9 0,0
19.02.2018 09:00:00 2,0 1,4 4 2 7 4 WZW 1022,0 9 0,0
19.02.2018 08:00:00 1,7 1,1 4 2 11 6 ZW 1021,7 10 0,0
19.02.2018 07:00:00 1,7 1,1 7 4 14 8 ZW 1021,8 11 0,0
19.02.2018 06:00:00 2,0 1,1 11 6 14 8 WZW 1021,7 14 0,0
19.02.2018 05:00:00 2,1 1,1 14 8 22 12 WZW 1021,9 15 0,0
19.02.2018 04:00:00 2,3 1,0 18 10 22 12 WZW 1022,3 17 0,0
19.02.2018 03:00:00 2,5 1,0 18 10 25 14 ZW 1022,7 19 0,0
19.02.2018 02:00:00 2,5 0,1 18 10 25 14 WZW 1023,3 35 0,0
19.02.2018 01:00:00 2,4 0,3 18 10 25 14 WZW 1023,7 30 0,0
19.02.2018 00:00:00 2,4 -0,4 22 12 25 14 WZW 1024,1 30 0,0

tt = temperatuur
td = dauwpunt
ff = windsnelheid
fx = windstoten
dd = windrichting
ppp = luchtdruk
vv = zicht
rr = neerslag

Weerstations in de omgeving